Temperature
19 19 19 19 19 19 19 18 18 18 18 18 18 18 18 18 18 18 18 18 18 18 18 18 18 18 18 18 18 18 18 18 18 18 18 18 17 17 17 17 17 17 17
19 19 19 19 19 18 18 18 18 18 18 18 18 18 18 18 18 18 18 18 18 18 18 18 18 18 18 18 18 18 18 18 18 18 18 17 17 17 17 17 17 17 17
19 19 19 19 18 18 18 18 18 18 18 18 18 18 18 18 18 18 18 18 18 18 18 18 18 18 18 18 18 18 18 18 17 17 17 17 17 17 17 17 17 17 17
19 18 19 19 18 18 18 18 18 18 18 18 18 18 18 18 18 18 18 18 18 18 18 18 18 18 18 18 18 18 18 17 17 17 17 17 17 17 17 17 17 17 17
19 19 19 19 19 18 18 18 18 18 18 18 18 18 18 18 18 18 18 18 18 18 18 18 18 18 18 18 18 18 18 17 17 17 17 17 17 17 17 17 17 17 17
19 19 19 19 19 18 18 18 18 18 18 18 18 18 18 18 18 18 18 18 18 18 18 18 18 18 18 18 18 18 18 17 17 17 17 17 17 17 17 17 17 17 17
19 19 19 19 19 19 18 18 18 18 18 18 18 18 18 18 18 18 18 18 18 18 18 18 18 18 18 18 18 18 18 18 18 17 17 18 17 17 17 17 17 17 17
20 19 20 19 19 19 19 18 18 18 18 18 18 18 18 18 18 18 18 18 18 18 18 18 18 18 18 18 18 18 18 18 18 18 18 18 18 17 17 17 17 17 17
20 19 19 19 19 19 19 19 19 18 18 18 18 18 18 18 18 18 18 18 18 18 18 18 18 18 18 18 18 18 18 18 18 18 18 18 18 18 17 17 17 17 17
20 20 19 19 19 19 19 19 19 19 19 18 18 18 18 18 18 18 18 18 18 18 18 18 18 18 18 18 18 18 18 18 18 18 18 18 18 18 18 17 17 17 17
21 20 20 19 19 18 18 19 18 18 18 18 18 18 18 18 18 18 18 18 18 18 18 18 18 18 18 18 18 18 18 18 18 18 18 18 18 18 18 17 17 17 17
20 20 20 19 19 19 19 18 18 18 18 18 18 18 18 18 18 18 18 18 18 18 18 18 18 18 18 18 18 18 18 18 18 18 18 18 18 18 18 18 17 17 17
21 20 20 20 19 19 19 19 18 18 18 18 18 18 18 18 18 18 18 18 18 18 18 18 18 18 18 18 18 18 18 18 18 18 18 18 18 18 18 18 17 17 17
21 20 20 19 19 19 19 19 19 19 19 18 18 18 18 18 18 18 18 18 18 18 18 18 18 18 18 18 18 18 18 19 18 18 18 18 18 18 18 18 17 17 17
21 20 20 19 19 19 19 19 19 19 19 19 18 18 18 18 18 18 18 18 18 18 18 18 18 18 18 18 18 18 18 18 18 18 18 18 18 18 18 18 18 17 17
21 20 20 19 19 19 19 19 19 19 19 19 18 18 18 18 18 18 18 18 18 18 18 18 18 18 18 18 18 18 18 18 18 18 18 18 18 18 18 18 18 17 17
21 20 20 19 19 19 19 19 19 19 19 19 19 19 18 18 18 18 18 18 18 18 18 18 18 18 18 18 18 18 18 18 18 18 18 18 18 18 18 18 18 18 17
21 21 20 20 19 19 19 19 19 19 19 19 19 19 18 18 18 18 18 18 18 18 18 18 18 18 18 18 18 18 18 18 18 18 18 18 18 18 18 18 18 18 17
21 21 20 20 20 20 19 19 19 19 19 19 19 19 19 18 18 18 18 18 18 18 18 18 18 18 18 18 18 19 18 18 18 18 18 18 18 18 18 18 18 17 17
21 21 20 20 20 19 19 19 19 19 19 19 19 19 19 18 18 18 18 18 18 18 18 18 18 18 18 18 18 19 19 19 19 18 18 18 18 18 18 18 18 17 17
21 21 20 20 20 19 19 19 19 19 19 19 19 19 19 19 19 19 19 18 18 18 18 18 18 18 18 18 18 18 19 19 19 19 19 18 18 18 18 17 17 17 17
21 21 20 20 20 20 20 19 19 19 19 19 19 19 19 19 19 19 19 19 18 18 18 18 18 18 18 18 18 18 18 19 19 19 19 18 18 18 18 17 17 17 17
21 21 21 21 20 20 20 20 19 19 19 19 19 19 19 19 19 19 19 19 19 18 18 18 18 18 18 18 18 18 18 18 18 19 19 18 18 18 18 17 17 17 17
22 21 21 21 21 20 20 20 19 19 19 20 19 19 19 19 19 19 19 19 19 19 18 18 18 18 18 18 18 18 18 18 18 18 18 18 18 18 17 17 17 17 16
22 21 21 21 21 21 20 20 20 19 19 19 19 19 19 19 19 19 19 19 19 19 18 18 18 18 18 18 18 18 18 18 18 18 17 17 17 17 17 17 16 16 16
23 22 21 21 21 21 21 20 20 20 20 19 19 19 19 19 19 19 19 19 19 19 18 18 18 18 18 18 18 18 18 18 18 18 17 17 17 17 17 16 16 16 16
Wind_Speed
13 14 15 16 17 18 18 17 18 18 19 19 19 19 20 20 20 20 20 20 20 20 20 20 19 19 19 19 18 18 18 18 19 20 19 18 17 16 15 16 18 18 18
15 16 16 17 17 17 17 17 17 18 18 18 18 18 19 19 19 19 19 20 20 20 20 19 18 18 18 18 17 16 16 16 17 18 19 18 17 16 16 17 18 16 17
16 17 17 16 17 16 16 16 17 18 18 18 18 18 18 18 19 19 19 19 19 19 19 19 18 18 18 16 15 14 13 14 15 16 17 16 16 17 18 20 19 17 16
17 18 17 17 17 16 16 16 17 17 17 17 17 17 17 17 18 18 18 18 18 18 18 18 18 17 16 15 13 11 10 9 10 10 10 14 15 16 17 17 16 16 15
18 19 17 17 17 17 17 16 16 17 17 17 17 17 17 17 17 17 17 17 17 17 17 17 16 15 14 12 10 7 6 5 4 6 13 17 16 15 16 15 15 14 14
18 19 17 17 17 16 16 16 16 16 16 16 16 16 16 16 16 16 17 16 16 15 15 15 15 14 12 10 7 5 4 3 3 8 15 17 15 14 15 14 14 13 13
18 18 17 17 17 16 16 16 16 16 15 15 15 15 15 15 15 15 15 15 15 14 14 14 13 12 10 8 5 3 3 5 1 12 16 16 15 14 13 13 13 12 12
18 18 17 17 17 16 16 15 15 15 15 15 14 14 14 14 14 14 14 14 14 13 13 12 12 11 9 6 3 3 4 5 7 13 17 16 15 14 13 12 12 11 11
17 17 16 16 15 15 15 15 14 14 14 13 13 12 13 13 13 13 13 13 12 12 11 11 10 9 7 4 1 3 5 6 3 10 15 14 15 14 12 11 11 10 10
13 13 15 15 15 15 14 13 14 13 12 12 11 11 11 12 12 13 12 11 11 10 10 9 8 7 5 3 1 3 5 5 2 11 14 14 15 13 12 11 10 9 9
11 10 12 12 12 13 14 14 13 12 11 10 10 10 10 9 10 10 11 10 10 9 8 7 6 5 4 4 4 5 6 2 6 12 13 15 14 13 11 10 9 9 8
10 10 9 9 9 11 12 12 11 10 10 8 8 9 8 6 8 11 11 10 9 8 7 6 6 6 5 5 6 6 4 3 7 11 12 15 14 12 11 10 9 8 8
9 9 10 8 6 7 8 8 7 8 7 7 6 7 6 6 8 10 9 9 8 8 7 7 7 6 5 4 3 4 2 3 6 11 13 14 13 12 10 9 9 8 8
9 9 9 9 6 4 5 6 6 6 6 6 5 4 5 3 3 5 5 7 7 6 5 4 4 3 2 1 1 1 1 3 7 11 13 14 13 11 10 9 9 8 7
9 10 8 7 6 4 4 1 5 5 5 6 5 4 4 3 3 3 2 1 3 4 4 2 2 2 1 1 1 1 2 2 5 9 11 14 13 11 10 9 9 8 8
10 10 10 8 7 5 2 1 2 4 5 5 5 5 3 4 4 3 1 0 0 2 2 2 2 1 1 0 1 1 0 1 3 7 11 12 13 12 11 10 9 9 9
10 10 10 9 8 5 4 3 4 4 6 4 5 5 4 4 3 2 1 2 1 1 2 1 1 1 2 2 2 2 1 2 2 4 9 10 11 12 12 12 11 10 9
10 9 8 9 10 7 4 2 1 2 4 4 5 6 5 4 4 2 2 1 2 3 2 1 1 1 1 1 2 2 2 2 3 4 6 9 10 11 13 13 12 11 10
10 9 7 7 9 8 6 3 2 2 2 3 5 5 6 5 4 3 1 1 2 1 1 2 1 1 2 2 2 2 3 3 3 4 4 6 8 10 12 14 14 12 10
10 9 7 7 7 7 5 4 2 3 3 3 4 5 6 5 4 3 2 2 2 1 1 1 1 2 2 3 4 2 3 3 3 3 3 4 5 7 9 11 12 11 11
11 10 8 7 7 5 4 4 4 3 3 3 4 6 6 6 5 4 2 2 2 1 1 2 2 3 3 2 2 2 3 3 3 3 2 2 2 4 6 8 8 8 8
11 10 9 8 8 7 5 4 3 3 4 4 3 5 7 7 6 6 4 3 3 2 2 3 3 3 3 1 1 2 2 2 2 2 3 2 2 1 3 6 7 6 6
13 12 10 8 8 7 6 4 4 3 3 2 3 4 5 7 6 5 4 3 3 3 3 3 3 4 3 2 1 1 1 1 1 1 0 1 2 2 2 3 5 6 5
13 12 9 9 8 7 6 5 5 4 4 4 3 3 4 4 4 4 4 4 3 3 2 3 3 3 3 3 2 2 3 1 1 1 1 0 1 2 1 1 3 4 5
14 12 11 9 8 7 6 5 5 4 4 3 3 3 3 3 4 4 4 4 3 3 2 3 2 3 2 3 3 2 3 3 2 2 2 1 0 1 1 1 3 4 4
13 12 12 10 8 8 7 6 5 4 3 2 2 2 3 3 3 3 4 3 3 3 3 3 3 3 3 3 3 3 2 1 1 2 2 1 1 0 1 2 3 4 5
Wind_Direction
90 92 90 88 87 86 86 86 85 85 84 83 83 83 85 87 87 88 89 91 92 93 92 91 91 91 91 91 91 93 96 98 99 100 99 96 94 95 100 105 102 96 99
95 97 95 93 91 90 89 89 87 86 86 86 86 86 87 88 89 88 90 91 93 94 93 93 93 93 93 94 95 98 102 105 108 109 105 97 91 91 91 91 96 102 101
101 103 98 94 94 92 90 90 89 88 87 87 87 87 88 89 90 91 91 92 94 94 95 95 94 94 94 96 98 101 106 112 119 123 116 102 93 90 91 94 99 104 103
105 102 97 97 95 93 92 91 90 90 89 88 87 87 88 89 91 92 93 92 93 94 94 95 94 95 95 97 99 103 108 117 131 133 114 101 97 95 96 98 102 104 105
102 101 100 99 97 96 94 92 91 91 90 89 88 88 88 90 92 94 94 93 93 93 95 96 96 97 96 96 98 99 98 105 115 108 97 95 96 102 102 102 104 105 106
108 105 104 101 98 97 96 94 93 93 92 91 91 91 90 92 94 94 95 94 94 94 95 97 98 98 97 95 91 81 67 55 50 101 102 101 103 106 106 106 105 106 107
110 110 109 106 103 101 99 98 96 96 96 95 94 94 94 95 96 97 96 96 95 96 97 98 98 98 98 94 80 49 25 2 86 102 96 98 107 111 109 109 110 110 109
113 113 115 112 110 107 105 103 102 99 99 99 99 98 99 98 98 99 99 97 97 98 99 100 100 99 100 95 64 4 352 353 86 105 104 107 115 114 113 113 112 112 112
115 122 125 124 118 114 111 109 109 106 105 107 107 108 108 107 106 104 102 101 101 102 103 103 104 105 107 107 55 335 336 344 57 107 111 115 122 121 120 119 117 117 116
114 123 127 129 131 129 121 119 119 118 118 120 122 123 122 122 120 118 111 108 108 109 110 112 114 117 122 138 244 295 310 322 115 105 109 123 129 128 127 127 126 124 123
110 114 121 130 142 137 128 130 133 133 137 138 140 145 148 150 139 131 113 121 120 121 125 130 134 140 153 195 236 270 294 280 91 100 110 130 136 136 136 137 137 135 134
121 123 120 126 137 131 127 140 149 142 151 162 148 160 171 147 134 122 131 139 141 143 149 163 172 185 202 203 217 237 248 174 111 110 124 139 142 144 146 149 150 150 150
130 127 125 120 108 119 129 143 136 130 148 146 139 151 142 136 137 138 152 156 167 171 182 179 197 210 208 209 206 219 223 100 113 117 138 146 148 152 155 159 164 166 167
134 123 120 120 108 87 101 125 140 140 141 130 150 155 134 129 125 132 150 164 168 168 176 175 192 199 210 249 240 235 29 81 104 122 146 153 154 158 163 168 172 175 179
135 127 118 121 115 100 82 116 125 121 125 133 136 125 129 128 107 109 113 136 157 152 161 181 161 150 166 268 299 26 37 63 108 126 146 161 163 166 172 177 181 183 185
149 135 134 135 123 121 135 103 102 122 126 131 131 134 135 112 109 112 120 160 120 130 127 170 166 157 178 267 328 323 279 144 121 131 146 164 173 176 179 184 188 194 197
147 135 139 143 139 151 164 188 153 151 150 136 131 134 137 129 131 145 164 202 171 178 165 192 241 203 212 209 220 239 210 175 145 140 150 163 176 186 188 190 194 198 203
144 141 153 154 146 155 174 206 163 147 134 147 156 155 160 156 173 195 202 185 188 220 194 197 234 251 258 245 233 232 197 171 163 174 177 176 176 181 189 196 197 199 203
144 145 154 145 148 160 169 179 192 150 150 171 168 162 170 185 192 202 210 102 247 239 230 252 156 259 275 274 255 226 215 200 187 201 185 190 185 177 179 193 198 198 201
147 149 157 155 151 160 167 176 207 192 191 194 176 173 173 190 198 203 192 176 259 253 266 293 307 283 274 271 272 268 250 202 191 207 205 198 180 183 182 183 186 198 202
153 154 164 167 160 166 176 182 197 193 205 206 193 179 184 196 198 210 225 178 235 250 261 273 258 259 251 254 275 286 270 225 204 198 202 197 181 188 172 159 169 179 187
159 161 167 174 170 181 187 192 202 202 219 208 191 168 194 199 201 211 202 220 215 221 233 266 270 272 273 252 246 265 279 285 286 223 182 174 179 142 124 150 155 168 167
169 170 178 179 175 188 184 194 213 195 237 215 183 187 204 205 210 228 187 215 232 232 219 237 254 262 272 281 251 249 252 251 275 300 132 161 145 122 114 109 140 159 159
173 174 173 172 175 182 185 201 209 206 220 219 192 190 197 200 212 212 204 209 225 246 218 237 225 247 258 265 255 234 231 227 232 290 313 340 128 117 122 119 103 122 141
176 175 172 168 174 179 189 202 212 222 222 214 188 183 188 199 209 216 205 200 213 238 239 252 255 249 252 257 261 253 242 229 225 227 249 259 29 77 113 102 90 90 104
177 176 174 171 176 178 188 199 207 224 230 242 197 179 198 206 207 213 209 200 206 230 238 247 251 254 252 259 265 272 266 238 227 227 232 224 217 196 88 75 87 89 99
Height
1528 1527 1527 1527 1527 1528 1528 1529 1530 1530 1530 1531 1532 1532 1533 1534 1535 1536 1537 1537 1538 1539 1540 1542 1543 1544 1545 1546 1547 1549 1550 1551 1552 1553 1555 1556 1557 1558 1559 1560 1561 1562 1563
1529 1528 1529 1530 1531 1531 1532 1532 1533 1533 1534 1535 1536 1536 1537 1538 1538 1539 1540 1541 1542 1543 1544 1545 1546 1547 1548 1549 1550 1551 1553 1554 1555 1556 1557 1559 1560 1561 1561 1562 1563 1564 1565
1531 1530 1532 1533 1533 1534 1535 1536 1536 1537 1538 1538 1539 1540 1541 1541 1542 1543 1544 1544 1545 1546 1547 1548 1549 1550 1551 1552 1553 1554 1556 1557 1558 1559 1560 1561 1562 1563 1564 1565 1566 1566 1568
1534 1534 1535 1535 1536 1537 1538 1539 1540 1540 1541 1542 1542 1543 1544 1545 1545 1546 1547 1548 1549 1549 1550 1551 1552 1553 1554 1555 1556 1558 1559 1560 1561 1562 1564 1565 1565 1566 1566 1567 1568 1569 1570
1537 1537 1537 1538 1539 1540 1541 1542 1543 1544 1544 1545 1546 1546 1547 1548 1548 1549 1550 1551 1551 1552 1553 1554 1555 1556 1557 1558 1559 1560 1561 1562 1564 1565 1566 1567 1567 1568 1568 1569 1570 1571 1572
1539 1539 1540 1541 1542 1543 1544 1545 1546 1547 1547 1548 1549 1549 1550 1551 1552 1552 1553 1554 1554 1555 1556 1557 1557 1558 1560 1561 1562 1563 1564 1565 1566 1568 1569 1569 1569 1570 1570 1571 1572 1573 1574
1542 1542 1543 1544 1544 1545 1546 1548 1549 1549 1550 1551 1552 1552 1553 1554 1555 1555 1556 1556 1557 1558 1559 1559 1560 1561 1562 1563 1564 1565 1566 1567 1568 1570 1570 1571 1571 1572 1572 1573 1574 1575 1576
1544 1544 1545 1546 1547 1548 1549 1550 1551 1552 1553 1554 1554 1555 1556 1557 1557 1558 1559 1559 1560 1561 1561 1562 1563 1564 1565 1566 1567 1568 1569 1569 1571 1572 1572 1572 1573 1573 1574 1575 1576 1577 1578
1547 1547 1548 1549 1550 1551 1552 1553 1554 1555 1555 1556 1557 1558 1559 1559 1560 1561 1561 1562 1562 1563 1564 1564 1565 1566 1567 1568 1569 1570 1571 1572 1573 1573 1573 1574 1574 1575 1575 1576 1577 1578 1579
1549 1551 1551 1552 1552 1553 1554 1555 1556 1557 1558 1559 1560 1560 1561 1562 1563 1563 1564 1565 1565 1566 1566 1567 1568 1569 1569 1570 1571 1572 1573 1574 1575 1575 1575 1575 1576 1576 1577 1577 1578 1579 1580
1551 1553 1554 1554 1555 1556 1557 1558 1559 1560 1561 1561 1562 1563 1563 1564 1565 1566 1567 1567 1568 1568 1569 1570 1570 1571 1572 1573 1574 1574 1575 1575 1576 1576 1576 1576 1577 1577 1578 1579 1579 1580 1581
1552 1554 1555 1556 1558 1559 1560 1560 1561 1562 1563 1564 1565 1565 1566 1567 1568 1569 1569 1569 1570 1571 1571 1572 1573 1573 1574 1574 1575 1576 1576 1577 1577 1576 1577 1577 1578 1578 1579 1579 1580 1580 1581
1553 1555 1556 1557 1559 1561 1561 1562 1564 1564 1565 1566 1567 1568 1569 1569 1570 1570 1570 1571 1572 1572 1573 1573 1574 1575 1575 1576 1577 1577 1577 1578 1578 1577 1578 1578 1578 1579 1579 1580 1580 1581 1581
1554 1556 1557 1558 1559 1561 1563 1564 1565 1566 1566 1567 1568 1569 1570 1571 1572 1572 1572 1573 1573 1574 1574 1575 1575 1576 1577 1578 1578 1578 1579 1579 1578 1578 1578 1578 1579 1579 1579 1580 1580 1581 1581
1555 1556 1557 1559 1560 1562 1563 1565 1566 1567 1568 1568 1569 1570 1571 1572 1573 1573 1573 1574 1575 1575 1575 1576 1577 1577 1577 1578 1578 1579 1579 1579 1579 1579 1578 1579 1579 1579 1579 1580 1580 1580 1581
1554 1556 1557 1559 1560 1562 1563 1565 1566 1567 1568 1569 1570 1571 1572 1572 1573 1574 1574 1575 1575 1576 1576 1576 1577 1577 1578 1578 1578 1578 1579 1579 1579 1579 1578 1578 1579 1579 1579 1579 1579 1580 1580
1554 1556 1557 1559 1560 1562 1563 1565 1567 1568 1569 1570 1570 1571 1572 1573 1573 1574 1575 1575 1575 1576 1576 1577 1577 1577 1577 1577 1578 1578 1578 1578 1579 1579 1578 1578 1578 1578 1578 1579 1579 1579 1579
1554 1556 1558 1560 1560 1562 1563 1565 1567 1568 1569 1569 1570 1571 1572 1573 1573 1574 1575 1575 1575 1576 1576 1576 1577 1577 1577 1577 1577 1577 1577 1577 1578 1578 1578 1577 1577 1577 1577 1578 1578 1578 1578
1554 1555 1558 1560 1560 1562 1563 1565 1566 1568 1569 1569 1570 1571 1572 1572 1573 1574 1574 1574 1575 1575 1576 1576 1576 1576 1576 1576 1576 1576 1576 1576 1576 1577 1577 1577 1576 1576 1576 1576 1576 1576 1576
1553 1555 1557 1559 1560 1562 1563 1564 1566 1567 1568 1569 1570 1570 1571 1572 1572 1573 1573 1573 1574 1574 1575 1575 1574 1574 1574 1575 1575 1575 1575 1575 1575 1575 1575 1575 1575 1575 1574 1574 1574 1574 1574
1552 1554 1556 1558 1559 1561 1562 1564 1565 1566 1567 1568 1569 1569 1570 1571 1571 1571 1572 1572 1572 1573 1573 1573 1573 1573 1573 1573 1574 1573 1573 1573 1573 1573 1573 1573 1573 1573 1572 1572 1572 1572 1572
1550 1552 1554 1556 1558 1560 1561 1563 1564 1566 1566 1567 1568 1568 1569 1569 1570 1570 1570 1570 1571 1571 1571 1571 1571 1571 1572 1572 1572 1572 1572 1572 1571 1571 1571 1571 1571 1571 1571 1570 1570 1570 1569
1548 1550 1553 1555 1556 1558 1560 1561 1563 1564 1565 1566 1566 1566 1567 1567 1568 1568 1568 1568 1569 1569 1569 1569 1569 1569 1570 1570 1570 1571 1570 1570 1569 1570 1569 1569 1569 1569 1569 1568 1568 1568 1568
1546 1548 1551 1553 1555 1556 1558 1559 1561 1562 1563 1564 1564 1564 1565 1565 1566 1566 1566 1566 1566 1566 1567 1567 1567 1567 1567 1567 1568 1568 1568 1568 1568 1568 1568 1567 1567 1567 1567 1566 1566 1566 1565
1545 1547 1548 1550 1552 1554 1556 1557 1559 1560 1561 1562 1562 1563 1563 1563 1564 1564 1564 1564 1564 1564 1564 1565 1565 1564 1565 1565 1565 1565 1565 1566 1566 1566 1565 1566 1565 1565 1565 1564 1564 1564 1564
1543 1545 1547 1548 1550 1552 1554 1555 1556 1558 1559 1560 1560 1561 1561 1561 1561 1562 1562 1561 1561 1562 1562 1562 1562 1562 1561 1562 1562 1562 1563 1563 1563 1563 1563 1563 1563 1563 1563 1563 1562 1562 1563